This is the latest recevied weather packets stored in our database for station/object K0CVS. If no packets are shown the sender has not sent any weather packets the latest 1 day(s).
| Time | Temp. | Humidity | Pressure | Rain* | Wind** | Luminosity | Snow |
|---|---|---|---|---|---|---|---|
| 1836274605 | 21.11° C | 71% | 1017.3 hPa | 0 mm | 0 m/s | 0 W/m² | - |
| 1836274458 | 20.56° C | 72% | 1017.4 hPa | 0 mm | 0 m/s | 0 W/m² | - |
| 1836274303 | 21.11° C | 70% | 1017.4 hPa | 0 mm | 0 m/s | 0 W/m² | - |
| 1836274157 | 20.56° C | 71% | 1017.4 hPa | 0 mm | 0 m/s | 0 W/m² | - |
| 1836274002 | 21.11° C | 70% | 1017.4 hPa | 0 mm | 0 m/s | 0 W/m² | - |
| 1778044573 | 8.33° C | 77% | 1015.6 hPa | 0 mm | 0 m/s | 0 W/m² | - |
| 1778044269 | 8.33° C | 77% | 1015.7 hPa | 0 mm | 0 m/s | 0 W/m² | - |
| 1778043967 | 8.33° C | 77% | 1015.6 hPa | 0 mm | 0 m/s | 0 W/m² | - |
| 1778043664 | 8.33° C | 79% | 1015.7 hPa | 0 mm | 0 m/s | 0 W/m² | - |
| 1778043361 | 8.33° C | 80% | 1015.3 hPa | 0 mm | 0 m/s | 0 W/m² | - |
| 1778043057 | 8.33° C | 81% | 1015.5 hPa | 0 mm | 0 m/s | 0 W/m² | - |
| 1778042756 | 8.33° C | 81% | 1015.4 hPa | 0 mm | 0 m/s | 0 W/m² | - |
| 1778042452 | 8.33° C | 78% | 1015.2 hPa | 0 mm | 0 m/s | 0 W/m² | - |
| 1778042149 | 8.89° C | 77% | 1015.3 hPa | 0 mm | 0.45 m/s, 293° | 0 W/m² | - |
| 1778041848 | 8.89° C | 77% | 1015.5 hPa | 0 mm | 0 m/s | 0 W/m² | - |
| 1778041546 | 9.44° C | 74% | 1015.3 hPa | 0 mm | 0.45 m/s, 342° | 0 W/m² | - |
| 1778041244 | 9.44° C | 74% | 1015.4 hPa | 0 mm | 0 m/s | 0 W/m² | - |
| 1778040942 | 9.44° C | 74% | 1015.4 hPa | 0 mm | 0.89 m/s, 336° | 0 W/m² | - |
| 1778040638 | 10° C | 74% | 1015.2 hPa | 0 mm | 0.45 m/s, 13° | 0 W/m² | - |
| 1778040337 | 9.44° C | 79% | 1015 hPa | 0 mm | 0 m/s | 0 W/m² | - |
| 1778040032 | 10° C | 80% | 1014.6 hPa | 0 mm | 0 m/s | 0 W/m² | - |
| 1778039729 | 10° C | 78% | 1014.6 hPa | 0 mm | 0 m/s | 0 W/m² | - |
| 1778039426 | 9.44° C | 78% | 1014.6 hPa | 0 mm | 0 m/s | 0 W/m² | - |
| 1778039124 | 9.44° C | 80% | 1014.4 hPa | 0 mm | 0 m/s | 0 W/m² | - |
| 1778038820 | 10° C | 78% | 1014.2 hPa | 0 mm | 0 m/s | 0 W/m² | - |
* Rain latest hour (hover to see other rain measurements)
** Current wind speed in m/s (hover to see current wind gust speed)